Skip Page Navigation
NASA JPL Caltech
NASA Logo - Jet Propulsion Laboratory + View the NASA Portal
+ Center for Near-Earth Object Studies
JPL Home Earth Solar System Stars & Galaxies Technology
JPL Solar System Dynamics
BODIES ORBITS EPHEMERIDES TOOLS PHYSICAL DATA DISCOVERY FAQ SITE MAP
IMPORTANT: The SSD Announcement email list is now available. Major changes are coming in the near future, including possible hostname and/or URL changes. To be notified of such changes, subscribe to this email list.

Please visit this page for more details.


JPL Small-Body Database Browser
Search: [ help ]  
29741 (1999 BM10)
Classification: Main-belt Asteroid          SPK-ID: 2029741
Ephemeris | Orbit Diagram | Orbital Elements | Mission Design | Physical Parameters | Discovery Circumstances | Close-Approach Data ]

[ show orbit diagram ]
Orbital Elements at Epoch 2459000.5 (2020-May-31.0) TDB
Reference: JPL 22 (heliocentric ecliptic J2000)
 Element Value Uncertainty (1-sigma)   Units 
e .1820935390404208 4.0142e-08  
a 2.279077998904929 6.4912e-09 au
q 1.86407262033517 9.1126e-08 au
i 4.561917997218301 3.9793e-06 deg
node 142.7030135703512 4.5668e-05 deg
peri 236.5028884025963 4.6772e-05 deg
M 169.5978606510716 8.6796e-06 deg
tp 2458408.454507787344
(2018-Oct-16.95450779)
3.0222e-05 TDB
period 1256.716189569515
3.44
5.369e-06
1.47e-08
d
yr
n .2864608596498762 1.2238e-09 deg/d
Q 2.694083377474688 7.6732e-09 au
  Orbit Determination Parameters
   # obs. used (total)      1581  
   data-arc span      12821 days (35.10 yr)  
   first obs. used      1984-12-28  
   last obs. used      2020-02-04  
   planetary ephem.      DE431  
   SB-pert. ephem.      SB431-N16  
   condition code      0  
   norm. resid. RMS      .52425  
   source      ORB  
   producer      Otto Matic  
   solution date      2020-Feb-23 01:46:39  

Additional Information
 Earth MOID = .870517 au 
 Jupiter MOID = 2.77153 au 
 T_jup = 3.580 
[ hide covariance matrix ]
Orbital Elements at Epoch 2456703.5 (2014-Feb-15.0) TDB
Reference: JPL 22 (heliocentric ecliptic J2000)
 Element Value Uncertainty (1-sigma)   Units 
e .1816822143164763 4.0202e-08  
q 1.865398596760111 9.1279e-08 au
tp 2457149.354619933645
(2015-May-06.85461993)
3.0901e-05 TDB
node 142.7626876884503 4.5622e-05 deg
peri 236.0846627458152 4.6736e-05 deg
i 4.563284692387005 3.9816e-06 deg
  Orbit Determination Parameters
   # obs. used (total)      1581  
   data-arc span      12821 days (35.10 yr)  
   first obs. used      1984-12-28  
   last obs. used      2020-02-04  
   planetary ephem.      DE431  
   SB-pert. ephem.      SB431-N16  
   condition code      0  
   norm. resid. RMS      .52425  
   source      ORB  
   producer      Otto Matic  
   solution date      2020-Feb-23 01:46:39  

Additional Information
 Jupiter MOID = 2.77153 au 
 T_jup = 3.580 
Orbit Covariance (6×6)
  e q tp node peri i
e 1.616179367076936E-15 -3.66352240048658E-15 -3.703288572516992E-13 1.929415426908549E-14 -1.59041636989298E-13 -1.451897449675816E-15
q -3.66352240048658E-15 8.331946910237252E-15 8.170233014605934E-13 -4.29221854095057E-14 3.498701230044981E-13 3.387819061304944E-15
tp -3.703288572516992E-13 8.170233014605934E-13 9.548617401855422E-10 -1.240333668414251E-11 3.228662694822215E-10 7.668969229696442E-14
node 1.929415426908549E-14 -4.29221854095057E-14 -1.240333668414251E-11 2.081384079592468E-9 -2.078671791185866E-9 6.099693987877289E-11
peri -1.59041636989298E-13 3.498701230044981E-13 3.228662694822215E-10 -2.078671791185866E-9 2.184279628526947E-9 -6.076965485202374E-11
i -1.451897449675816E-15 3.387819061304944E-15 7.668969229696442E-14 6.099693987877289E-11 -6.076965485202374E-11 1.585347065157118E-11

Ephemeris | Orbit Diagram | Orbital Elements | Mission Design | Physical Parameters | Discovery Circumstances | Close-Approach Data ]

Physical Parameter Table
Parameter Symbol Value Units Sigma Reference Notes
absolute magnitude H 14.9   n/a MPO468087  
diameter diameter 2.552 km 0.483 urn:nasa:pds:neowise_diameters_albedos::2.0[mainbelt] (http://adsabs.harvard.edu/abs/2011ApJ...741...68M)  
geometric albedo albedo 0.297   0.120 urn:nasa:pds:neowise_diameters_albedos::2.0[mainbelt] (http://adsabs.harvard.edu/abs/2011ApJ...741...68M)  

29741 (1999 BM10)          Discovered 1999-Jan-24 by Korlevic, K. at Visnjan
Reference: 20011002/Numbers.arcLast Updated: 2004-04-19

[ show close-approach data ]
Alternate Designations
 1999 BM10 = 1984 YZ6 = 2000 JF56 
Ephemeris | Orbit Diagram | Orbital Elements | Mission Design | Physical Parameters | Discovery Circumstances | Close-Approach Data ]
ABOUT SSD CREDITS/AWARDS PRIVACY/COPYRIGHT GLOSSARY LINKS
FirstGov 2020-Feb-27 21:58 UT
(server date/time)  
NASA Home Page
Site Manager:   Ryan S. Park
Webmaster  Alan B. Chamberlin